Regional Weather Roundup
Issued by NWS

Home | Current Version | Previous Version | Graphics & Text | Print | Product List | Glossary Off
Versions: 1 2 3 4 5 6 7 8 9 10 11 12 13 14 15 16 17 18 19 20 21 22 23 24 25 26 27 28 29 30 31 32 33 34 35 36 37 38 39 40 41 42 43 44 45 46 47 48 49 50

000
ASUS43 KFSD 240002
RWRSD

WEATHER ROUNDUP FOR SOUTH DAKOTA
NATIONAL WEATHER SERVICE SIOUX FALLS SD
700 PM CDT FRI JUN 23 2017

NOTE: "FAIR" INDICATES FEW OR NO CLOUDS BELOW 12,000 FEET WITH NO
SIGNIFICANT WEATHER AND/OR OBSTRUCTIONS TO VISIBILITY.


SDZ001>005-009-010-012>017-240100-
NORTHWEST AND NORTH CENTRAL SOUTH DAKOTA

CITY           SKY/WX    TMP DP  RH WIND       PRES   REMARKS
BUFFALO          N/A     68  27  21 NW23G31   30.10R
FAITH            N/A     67  30  25 N21G29    30.12R
MOBRIDGE       MOSUNNY   71  30  21 NW22G30   30.04R
$$

SDZ012>016-024>037-041>051-057-063-072>074-240100-
SOUTHWEST AND SOUTH CENTRAL SOUTH DAKOTA

CITY           SKY/WX    TMP DP  RH WIND       PRES   REMARKS
RAPID CTY ARPT SUNNY     69  27  20 N22G33    30.17R
PIERRE         SUNNY     69  32  25 NW17G26   30.08S
CUSTER         SUNNY     61  18  18 NW12G23   30.24R
ELLSWORTH AFB  SUNNY     68  27  21 NW23      30.17R
PHILIP         SUNNY     72  29  20 NW21G26   30.11S
PINE RIDGE     SUNNY     70  36  28 N13       30.16R
SPEARFISH      FAIR      63  28  27 NW17G25   30.22S
WINNER         FAIR      73  31  21 NW22G29   30.09R
$$

SDZ004>011-016>023-039-040-240100-
NORTHEAST SOUTH DAKOTA

CITY           SKY/WX    TMP DP  RH WIND       PRES   REMARKS
ABERDEEN       PTSUNNY   67  38  34 NW22G30   30.02R
WATERTOWN      MOSUNNY   64  39  39 NW20G26   29.99R
BROOKINGS      MOSUNNY   66  45  46 N15       30.00R
SISSETON         N/A     67  38  34 NW21G29   29.95R
$$

SDZ017-020-022-023-036>040-048>070-240100-
SOUTHEAST SOUTH DAKOTA

CITY           SKY/WX    TMP DP  RH WIND       PRES   REMARKS
SIOUX FALLS    MOSUNNY   68  42  38 NW22G28   29.99S
HURON          MOSUNNY   68  40  35 NW17      30.02S
CHAMBERLAIN    SUNNY     71  36  27 W21G30    30.07R
MITCHELL       SUNNY     71  37  28 N15G25    30.03S
YANKTON        MOSUNNY   71  41  33 NW17G28   30.02R
$$

ABBREVIATIONS USED IN REMARKS
   TC - TEMPERATURE IN CELSIUS
  WCI - WIND CHILL INDEX
   HX - HEAT INDEX
  VSB - VISIBILITY





USA.gov is the U.S. government's official web portal to all federal, state and local government web resources and services.